Retour au catalogue

THOR ABLESTAR DEB

ActifLEO
NORAD 463·DEBRIS·🇺🇸 United States

Lancé Jun 29, 1961 depuis Cape Canaveral Space Force Station

Loading…

Prochains Passages (prochaines 24 heures)

TLE

FraisSource: Space-Track

Époque: Sep 7, 2026, 13:32 UTC

1 00463U 61015EZ  26250.56409031  .00001418  00000-0  32758-3 0  9991
2 00463  66.7653 184.1455 0046806 201.3773 158.5386 14.57632297381131

Suivez THOR ABLESTAR DEB en temps réel avec AllMySat

Download on the App Store